Simultaneous Nadir Overpasses (SNOs) Predictions

Prediction of SNOs between GOES-15 and LANDSAT-8 Satellite Orbit:

Table of predicted SNOs for the next 14.0 days since TLE Epoch: 7/9/2022
Index Date Time (GOES-15) GOES-15 Lat,Lon LANDSAT-8 Lat,Lon Distance(km) Time Diff (sec)
1 07/09/2022 18:36:56 -0.11,-128.47 -0.51,-126.50 223.35 80
2 07/10/2022 07:00:59 0.08,-128.43 -0.61,-131.69 370.37 80
3 07/12/2022 06:48:47 0.08,-128.41 -0.00,-128.73 36.59 80
4 07/14/2022 06:33:56 0.10,-128.38 0.67,-125.77 296.51 80
5 07/14/2022 18:57:50 -0.06,-128.40 0.50,-130.91 286.08 80
6 07/16/2022 18:42:59 -0.08,-128.37 -0.18,-127.96 47.08 80
7 07/18/2022 18:30:47 -0.09,-128.34 -0.81,-125.00 380.38 80
8 07/19/2022 06:54:50 0.04,-128.31 -0.36,-130.18 212.88 80
9 07/21/2022 06:39:58 0.06,-128.27 0.27,-127.21 120.11 80
10 07/21/2022 19:03:53 -0.01,-128.29 0.84,-132.36 463.22 80
